TimeCST,TemperatureF,Dew PointF,Humidity,Sea Level PressureIn,VisibilityMPH,Wind Direction,Wind SpeedMPH,Gust SpeedMPH,PrecipitationIn,Events,Conditions,WindDirDegrees,DateUTC
12:15 AM,24.8,15.8,69,30.24,10.0,NW,18.4,24.2,N/A,,Clear,310,2013-01-20 06:15:00
12:35 AM,24.8,14.0,64,30.25,10.0,NW,18.4,27.6,N/A,,Clear,320,2013-01-20 06:35:00
12:55 AM,23.0,12.2,63,30.26,10.0,NW,16.1,23.0,N/A,,Clear,320,2013-01-20 06:55:00
1:15 AM,21.2,12.2,68,30.27,10.0,NW,16.1,23.0,N/A,,Clear,320,2013-01-20 07:15:00
1:35 AM,21.2,8.6,58,30.27,10.0,NW,19.6,-,N/A,,Clear,320,2013-01-20 07:35:00
1:55 AM,19.4,8.6,63,30.29,10.0,NW,13.8,-,N/A,,Clear,320,2013-01-20 07:55:00
2:15 AM,19.4,8.6,63,30.31,10.0,WNW,13.8,-,N/A,,Clear,300,2013-01-20 08:15:00
2:35 AM,17.6,8.6,68,30.32,10.0,WNW,15.0,-,N/A,,Clear,300,2013-01-20 08:35:00
2:55 AM,17.6,6.8,63,30.33,10.0,NW,9.2,-,N/A,,Clear,320,2013-01-20 08:55:00
3:15 AM,17.6,6.8,63,30.32,10.0,NW,10.4,-,N/A,,Clear,320,2013-01-20 09:15:00
3:35 AM,17.6,8.6,68,30.31,10.0,NW,13.8,-,N/A,,Clear,310,2013-01-20 09:35:00
3:55 AM,17.6,8.6,68,30.30,10.0,NNW,15.0,-,N/A,,Clear,330,2013-01-20 09:55:00
4:15 AM,15.8,6.8,68,30.31,10.0,NNW,13.8,-,N/A,,Clear,330,2013-01-20 10:15:00
4:35 AM,15.8,5.0,62,30.30,10.0,NNW,10.4,-,N/A,,Clear,340,2013-01-20 10:35:00
4:55 AM,15.8,6.8,68,30.30,10.0,NNW,11.5,-,N/A,,Clear,330,2013-01-20 10:55:00
5:15 AM,15.8,5.0,62,30.31,10.0,NNW,9.2,-,N/A,,Clear,330,2013-01-20 11:15:00
5:35 AM,15.8,5.0,62,30.31,10.0,North,11.5,-,N/A,,Clear,350,2013-01-20 11:35:00
5:55 AM,14.0,3.2,62,30.32,10.0,North,12.7,-,N/A,,Clear,360,2013-01-20 11:55:00
6:15 AM,14.0,5.0,67,30.32,10.0,North,12.7,-,N/A,,Clear,350,2013-01-20 12:15:00
6:35 AM,14.0,5.0,67,30.32,10.0,NNW,10.4,-,N/A,,Clear,340,2013-01-20 12:35:00
6:55 AM,14.0,5.0,67,30.32,10.0,NNW,10.4,-,N/A,,Partly Cloudy,340,2013-01-20 12:55:00
7:15 AM,14.0,5.0,67,30.32,10.0,NNW,6.9,-,N/A,,Clear,340,2013-01-20 13:15:00
7:35 AM,14.0,5.0,67,30.33,10.0,NNW,5.8,-,N/A,,Clear,330,2013-01-20 13:35:00
7:55 AM,14.0,5.0,67,30.34,10.0,NW,5.8,-,N/A,,Clear,320,2013-01-20 13:55:00
8:35 AM,14.0,5.0,67,30.35,10.0,NW,5.8,-,N/A,,Mostly Cloudy,310,2013-01-20 14:35:00
8:55 AM,15.8,5.0,62,30.36,10.0,NW,5.8,-,N/A,,Overcast,320,2013-01-20 14:55:00
9:15 AM,15.8,5.0,62,30.36,10.0,WNW,4.6,-,N/A,,Overcast,300,2013-01-20 15:15:00
9:35 AM,15.8,5.0,62,30.37,10.0,NNW,6.9,-,N/A,,Overcast,330,2013-01-20 15:35:00
9:55 AM,15.8,3.2,58,30.37,10.0,North,8.1,-,N/A,,Mostly Cloudy,350,2013-01-20 15:55:00
10:15 AM,15.8,5.0,62,30.38,10.0,North,9.2,-,N/A,,Partly Cloudy,350,2013-01-20 16:15:00
10:35 AM,17.6,5.0,58,30.38,10.0,NNW,9.2,-,N/A,,Partly Cloudy,330,2013-01-20 16:35:00
10:55 AM,17.6,5.0,58,30.38,10.0,NNW,10.4,-,N/A,,Clear,340,2013-01-20 16:55:00
11:15 AM,17.6,5.0,58,30.38,10.0,NNW,9.2,-,N/A,,Partly Cloudy,340,2013-01-20 17:15:00
11:35 AM,17.6,5.0,58,30.37,10.0,NNW,8.1,-,N/A,,Mostly Cloudy,340,2013-01-20 17:35:00
11:55 AM,17.6,3.2,53,30.36,10.0,NNW,3.5,-,N/A,,Scattered Clouds,340,2013-01-20 17:55:00
12:15 PM,19.4,5.0,54,30.36,10.0,WNW,6.9,-,N/A,,Scattered Clouds,290,2013-01-20 18:15:00
12:35 PM,19.4,3.2,49,30.35,10.0,North,6.9,-,N/A,,Mostly Cloudy,360,2013-01-20 18:35:00
12:55 PM,19.4,5.0,54,30.35,10.0,NW,8.1,-,N/A,,Overcast,320,2013-01-20 18:55:00
1:15 PM,19.4,5.0,54,30.34,10.0,NW,6.9,-,N/A,,Overcast,320,2013-01-20 19:15:00
1:35 PM,17.6,1.4,49,30.35,10.0,NNW,11.5,-,N/A,,Overcast,330,2013-01-20 19:35:00
1:55 PM,17.6,3.2,53,30.35,10.0,NW,10.4,-,N/A,,Overcast,320,2013-01-20 19:55:00
2:15 PM,19.4,5.0,54,30.35,10.0,North,10.4,-,N/A,,Mostly Cloudy,350,2013-01-20 20:15:00
2:35 PM,19.4,5.0,54,30.35,10.0,NNW,9.2,-,N/A,Snow,Light Snow,340,2013-01-20 20:35:00
2:55 PM,17.6,6.8,63,30.35,10.0,North,6.9,-,N/A,Snow,Light Snow,350,2013-01-20 20:55:00
3:15 PM,17.6,8.6,68,30.35,10.0,NNW,8.1,-,N/A,Snow,Light Snow,340,2013-01-20 21:15:00
3:35 PM,17.6,10.4,73,30.35,10.0,NNW,6.9,-,N/A,Snow,Light Snow,330,2013-01-20 21:35:00
3:55 PM,17.6,10.4,73,30.35,10.0,NNW,8.1,-,N/A,Snow,Light Snow,330,2013-01-20 21:55:00
4:15 PM,17.6,12.2,79,30.35,4.0,NW,8.1,-,N/A,Snow,Light Snow,310,2013-01-20 22:15:00
4:35 PM,17.6,14.0,86,30.35,6.0,NNW,8.1,-,N/A,Snow,Light Snow,340,2013-01-20 22:35:00
4:55 PM,17.6,12.2,79,30.35,6.0,NW,9.2,-,N/A,Snow,Light Snow,320,2013-01-20 22:55:00
5:15 PM,17.6,14.0,86,30.35,10.0,NNW,6.9,-,N/A,Snow,Light Snow,330,2013-01-20 23:15:00
5:35 PM,15.8,14.0,93,30.35,10.0,NW,5.8,-,N/A,Snow,Light Snow,320,2013-01-20 23:35:00
5:55 PM,15.8,14.0,93,30.35,10.0,NNW,5.8,-,N/A,Snow,Light Snow,330,2013-01-20 23:55:00
6:15 PM,15.8,14.0,93,30.35,9.0,NW,11.5,-,N/A,Snow,Light Snow,310,2013-01-21 00:15:00
6:35 PM,15.8,10.4,79,30.35,10.0,NW,10.4,-,N/A,,Overcast,310,2013-01-21 00:35:00
6:55 PM,15.8,10.4,79,30.35,10.0,WNW,10.4,-,N/A,Snow,Light Snow,300,2013-01-21 00:55:00
7:15 PM,15.8,8.6,73,30.36,10.0,NW,12.7,-,N/A,,Overcast,310,2013-01-21 01:15:00
7:35 PM,14.0,8.6,79,30.36,10.0,NW,9.2,-,N/A,,Scattered Clouds,310,2013-01-21 01:35:00
7:55 PM,12.2,8.6,85,30.36,10.0,NW,8.1,-,N/A,,Clear,310,2013-01-21 01:55:00
8:15 PM,10.4,6.8,85,30.35,10.0,WNW,5.8,-,N/A,,Clear,300,2013-01-21 02:15:00
8:35 PM,10.4,6.8,85,30.35,10.0,WNW,8.1,-,N/A,,Clear,290,2013-01-21 02:35:00
8:55 PM,10.4,6.8,85,30.35,10.0,WNW,8.1,-,N/A,,Clear,300,2013-01-21 02:55:00
9:15 PM,10.4,6.8,85,30.34,10.0,WNW,9.2,-,N/A,,Clear,300,2013-01-21 03:15:00
9:35 PM,10.4,6.8,85,30.34,10.0,WNW,6.9,-,N/A,,Clear,300,2013-01-21 03:35:00
9:55 PM,10.4,6.8,85,30.33,10.0,West,5.8,-,N/A,,Clear,260,2013-01-21 03:55:00
10:15 PM,8.6,6.8,92,30.35,10.0,West,6.9,-,N/A,,Clear,270,2013-01-21 04:15:00
10:35 PM,8.6,6.8,92,30.35,10.0,West,8.1,-,N/A,,Clear,270,2013-01-21 04:35:00
10:55 PM,10.4,6.8,85,30.36,10.0,West,10.4,-,N/A,,Partly Cloudy,280,2013-01-21 04:55:00
11:15 PM,10.4,6.8,85,30.36,10.0,West,10.4,-,N/A,,Partly Cloudy,280,2013-01-21 05:15:00
11:35 PM,10.4,6.8,85,30.36,10.0,West,11.5,-,N/A,,Mostly Cloudy,280,2013-01-21 05:35:00